Location: Columbia
(38.9520°N, 92.3340°W)
Time: 09:34:54
(UTC-05:00)

SJ-11-01 - Visible Passes

Search period start: 26 May 2016 00:00
Search period end: 05 June 2016 00:00
Orbit: 685 x 702 km, 98.2° (Epoch: 26 May)

Date Brightness Start Highest point End Pass type
(mag) Time Alt. Az. Time Alt. Az. Time Alt. Az.
26 May 5.0 21:43:19 10° S 21:47:51 52° W 21:52:25 10° NNW visible
27 May 6.5 22:24:42 10° SW 22:28:05 20° W 22:31:29 10° NW visible
28 May 4.4 21:25:40 10° S 21:30:19 81° WSW 21:35:01 10° NNW visible
29 May 5.9 22:06:23 10° SSW 22:10:27 30° W 22:14:33 10° NW visible
30 May 4.3 21:08:13 10° SSE 21:12:50 66° ENE 21:17:29 10° N visible
30 May 7.0 22:49:25 10° WSW 22:50:49 11° W 22:52:14 10° WNW visible
31 May 5.2 21:48:24 10° S 21:52:52 46° W 21:57:22 10° NNW visible
01 Jun 6.7 22:30:01 10° SW 22:33:08 18° W 22:36:15 10° NW visible
02 Jun 4.5 21:30:41 10° S 21:35:19 72° WSW 21:40:00 10° NNW visible
03 Jun 6.1 22:11:34 10° SSW 22:15:29 27° W 22:19:26 10° NW visible
04 Jun 4.3 21:13:10 10° SSE 21:17:49 75° ENE 21:22:30 10° N visible
